User: anonymous   Login
Location: Notre Dame Regional High School Observatory
(37.3056°N, 89.6097°W)
Time: 16:42:52
(UTC-06:00)
Language:

ATLAS 3B R/B - Orbit

View from above orbital plane
View from above orbital plane
View from above satellite
View from above satellite

Ground track
Ground track

The orbit data is extracted from the following two-line orbital elements,

1 28538U 05004B   17346.70117816 0.00000050  00000-0  83232-4 0    07
2 28538  63.8208 206.5887 0128000 160.9986 199.0014 13.43106903    05
Epoch (UTC): 12 December 2017 16:49:41
Eccentricity: 0.0128000
inclination: 63.8208°
perigee height: 1002 km
apogee height: 1193 km
right ascension of ascending node: 206.5887°
argument of perigee: 160.9986°
revolutions per day: 13.43106903
mean anomaly at epoch: 199.0014°
orbit number at epoch: 0

The dashed part of the orbit path shows where the satellite is in the earth's shadow,  

DLR